Time,TemperatureF,DewpointF,PressureIn,WindDirection,WindDirectionDegrees,WindSpeedMPH,WindSpeedGustMPH,Humidity,HourlyPrecipIn,Conditions,Clouds,dailyrainin,SoftwareType,DateUTC
2013-08-23 00:04:00,-999.0,-99.9,30.05,ENE,64,3.0,5.0,-999,-99.99,,,-99.99,,2013-08-23 04:04:00,
2013-08-23 00:13:00,-999.0,-99.9,30.05,ENE,75,3.0,5.0,-999,-99.99,,,-99.99,,2013-08-23 04:13:00,
2013-08-23 00:24:00,-999.0,-99.9,30.05,ENE,75,3.0,5.0,-999,-99.99,,,-99.99,,2013-08-23 04:24:00,
2013-08-23 00:43:00,-999.0,-99.9,30.03,East,86,3.0,5.0,-999,-99.99,,,-99.99,,2013-08-23 04:43:00,
2013-08-23 01:22:00,-999.0,-99.9,30.00,ENE,77,4.0,5.0,-999,-99.99,,,-99.99,,2013-08-23 05:22:00,
2013-08-23 01:53:00,76.0,-99.9,30.00,North,-999,-999.0,-999.0,-999,-99.99,,,-99.99,,2013-08-23 05:53:00,
2013-08-23 02:22:00,-999.0,-99.9,30.00,ENE,71,3.0,4.0,-999,-99.99,,,-99.99,,2013-08-23 06:22:00,
2013-08-23 02:32:00,-999.0,-99.9,30.00,ENE,60,3.0,5.0,-999,-99.99,,,-99.99,,2013-08-23 06:32:00,
2013-08-23 02:42:00,-999.0,-99.9,29.99,NE,43,2.0,4.0,-999,-99.99,,,-99.99,,2013-08-23 06:42:00,
2013-08-23 02:52:00,-999.0,-99.9,29.99,ENE,60,2.0,4.0,-999,-99.99,,,-99.99,,2013-08-23 06:52:00,
2013-08-23 03:32:00,-999.0,-99.9,29.97,ENE,78,4.0,5.0,-999,-99.99,,,-99.99,,2013-08-23 07:32:00,
2013-08-23 03:42:00,-999.0,-99.9,29.97,East,83,3.0,5.0,-999,-99.99,,,-99.99,,2013-08-23 07:42:00,
2013-08-23 03:53:00,-999.0,-99.9,29.97,East,83,3.0,6.0,-999,-99.99,,,-99.99,,2013-08-23 07:53:00,
2013-08-23 04:02:00,-999.0,-99.9,29.97,ENE,73,4.0,5.0,-999,-99.99,,,-99.99,,2013-08-23 08:02:00,
2013-08-23 04:22:00,-999.0,-99.9,29.97,NE,52,4.0,6.0,-999,-99.99,,,-99.99,,2013-08-23 08:22:00,
2013-08-23 04:32:00,-999.0,-99.9,29.97,NE,56,4.0,5.0,-999,-99.99,,,-99.99,,2013-08-23 08:32:00,
2013-08-23 04:52:00,-999.0,-99.9,29.97,ENE,67,4.0,5.0,-999,-99.99,,,-99.99,,2013-08-23 08:52:00,
2013-08-23 05:01:00,-999.0,-99.9,29.96,ENE,67,3.0,5.0,-999,-99.99,,,-99.99,,2013-08-23 09:01:00,
2013-08-23 05:21:00,-999.0,-99.9,29.97,ENE,65,3.0,5.0,-999,-99.99,,,-99.99,,2013-08-23 09:21:00,
2013-08-23 06:03:00,-999.0,-99.9,29.97,ENE,76,3.0,5.0,-999,-99.99,,,-99.99,,2013-08-23 10:03:00,
2013-08-23 06:33:00,-999.0,-99.9,29.97,ENE,73,4.0,5.0,-999,-99.99,,,-99.99,,2013-08-23 10:33:00,
2013-08-23 06:42:00,-999.0,-99.9,29.97,ENE,64,4.0,6.0,-999,-99.99,,,-99.99,,2013-08-23 10:42:00,
2013-08-23 07:02:00,-999.0,-99.9,-100.00,ENE,58,3.0,5.0,-999,-99.99,,,-99.99,,2013-08-23 11:02:00,
2013-08-23 07:11:00,-999.0,-99.9,29.98,ENE,70,4.0,6.0,-999,-99.99,,,-99.99,,2013-08-23 11:11:00,
2013-08-23 07:33:00,-999.0,-99.9,-100.00,ENE,66,4.0,5.0,-999,-99.99,,,-99.99,,2013-08-23 11:33:00,
2013-08-23 07:42:00,-999.0,-99.9,29.99,ENE,72,4.0,5.0,-999,-99.99,,,-99.99,,2013-08-23 11:42:00,
2013-08-23 08:02:00,-999.0,-99.9,29.99,ENE,72,5.0,7.0,-999,-99.99,,,-99.99,,2013-08-23 12:02:00,
2013-08-23 08:11:00,-999.0,-99.9,30.00,ENE,73,4.0,6.0,-999,-99.99,,,-99.99,,2013-08-23 12:11:00,
2013-08-23 08:22:00,-999.0,-99.9,-100.00,ENE,60,5.0,6.0,-999,-99.99,,,-99.99,,2013-08-23 12:22:00,
2013-08-23 08:32:00,-999.0,-99.9,30.01,ENE,66,5.0,9.0,-999,-99.99,,,-99.99,,2013-08-23 12:32:00,
2013-08-23 08:42:00,-999.0,-99.9,30.01,ENE,68,4.0,6.0,-999,-99.99,,,-99.99,,2013-08-23 12:42:00,
2013-08-23 08:52:00,-999.0,-99.9,30.01,ENE,69,4.0,6.0,-999,-99.99,,,-99.99,,2013-08-23 12:52:00,
2013-08-23 09:02:00,-999.0,-99.9,30.01,East,88,4.0,6.0,-999,-99.99,,,-99.99,,2013-08-23 13:02:00,
2013-08-23 09:12:00,-999.0,-99.9,30.00,East,89,4.0,6.0,-999,-99.99,,,-99.99,,2013-08-23 13:12:00,
2013-08-23 09:32:00,-999.0,-99.9,30.01,East,83,6.0,8.0,-999,-99.99,,,-99.99,,2013-08-23 13:32:00,
2013-08-23 09:53:00,-999.0,-99.9,30.01,NE,54,5.0,8.0,-999,-99.99,,,-99.99,,2013-08-23 13:53:00,
2013-08-23 10:02:00,-999.0,-99.9,30.01,NE,55,4.0,6.0,-999,-99.99,,,-99.99,,2013-08-23 14:02:00,
2013-08-23 10:12:00,-999.0,-99.9,30.01,East,91,5.0,8.0,-999,-99.99,,,-99.99,,2013-08-23 14:12:00,
2013-08-23 10:22:00,-999.0,-99.9,30.01,ENE,60,5.0,7.0,-999,-99.99,,,-99.99,,2013-08-23 14:22:00,
2013-08-23 10:32:00,-999.0,-99.9,30.01,ESE,106,4.0,6.0,-999,-99.99,,,-99.99,,2013-08-23 14:32:00,
2013-08-23 10:42:00,-999.0,-99.9,30.02,ESE,108,7.0,8.0,-999,-99.99,,,-99.99,,2013-08-23 14:42:00,
2013-08-23 11:02:00,-999.0,-99.9,30.02,ESE,113,4.0,9.0,-999,-99.99,,,-99.99,,2013-08-23 15:02:00,
2013-08-23 11:11:00,-999.0,-99.9,30.02,SE,140,8.0,10.0,-999,-99.99,,,-99.99,,2013-08-23 15:11:00,
2013-08-23 11:22:00,-999.0,-99.9,30.02,SSE,157,5.0,9.0,-999,-99.99,,,-99.99,,2013-08-23 15:22:00,
2013-08-23 11:33:00,-999.0,-99.9,30.02,SSE,150,6.0,8.0,-999,-99.99,,,-99.99,,2013-08-23 15:33:00,
2013-08-23 11:44:00,-999.0,-99.9,30.03,SSE,155,6.0,9.0,-999,-99.99,,,-99.99,,2013-08-23 15:44:00,
2013-08-23 11:54:00,-999.0,-99.9,30.03,SSE,153,5.0,9.0,-999,-99.99,,,-99.99,,2013-08-23 15:54:00,
2013-08-23 12:06:00,-999.0,-99.9,30.03,ESE,116,4.0,8.0,-999,-99.99,,,-99.99,,2013-08-23 16:06:00,
2013-08-23 12:14:00,-999.0,-99.9,30.03,SE,136,4.0,7.0,-999,-99.99,,,-99.99,,2013-08-23 16:14:00,
2013-08-23 12:24:00,-999.0,-99.9,30.02,SSE,155,5.0,6.0,-999,-99.99,,,-99.99,,2013-08-23 16:24:00,
2013-08-23 12:34:00,-999.0,-99.9,30.02,South,179,1.0,7.0,-999,-99.99,,,-99.99,,2013-08-23 16:34:00,
2013-08-23 12:42:00,-999.0,-99.9,30.02,SW,227,6.0,7.0,-999,-99.99,,,-99.99,,2013-08-23 16:42:00,
2013-08-23 12:53:00,-999.0,-99.9,30.02,SW,234,8.0,9.0,-999,-99.99,,,-99.99,,2013-08-23 16:53:00,
2013-08-23 13:04:00,-999.0,-99.9,30.02,SW,226,7.0,9.0,-999,-99.99,,,-99.99,,2013-08-23 17:04:00,
2013-08-23 13:13:00,-999.0,-99.9,30.01,SW,228,7.0,9.0,-999,-99.99,,,-99.99,,2013-08-23 17:13:00,
2013-08-23 13:24:00,-999.0,-99.9,30.01,SW,236,7.0,9.0,-999,-99.99,,,-99.99,,2013-08-23 17:24:00,
2013-08-23 13:34:00,-999.0,-99.9,30.01,SW,231,9.0,9.0,-999,-99.99,,,-99.99,,2013-08-23 17:34:00,
2013-08-23 13:43:00,-999.0,-99.9,30.01,SW,230,9.0,11.0,-999,-99.99,,,-99.99,,2013-08-23 17:43:00,
2013-08-23 13:54:00,-999.0,-99.9,30.01,SW,235,10.0,12.0,-999,-99.99,,,-99.99,,2013-08-23 17:54:00,
2013-08-23 14:02:00,-999.0,-99.9,30.01,SW,225,4.0,10.0,-999,-99.99,,,-99.99,,2013-08-23 18:02:00,
2013-08-23 14:12:00,-999.0,-99.9,30.02,NE,34,5.0,12.0,-999,-99.99,,,-99.99,,2013-08-23 18:12:00,
2013-08-23 14:22:00,-999.0,-99.9,30.02,NE,39,11.0,22.0,-999,-99.99,,,-99.99,,2013-08-23 18:22:00,
2013-08-23 14:32:00,-999.0,-99.9,30.02,NNE,25,7.0,9.0,-999,-99.99,,,-99.99,,2013-08-23 18:32:00,
2013-08-23 14:42:00,-999.0,-99.9,30.00,NE,36,6.0,10.0,-999,-99.99,,,-99.99,,2013-08-23 18:42:00,
2013-08-23 15:02:00,-999.0,-99.9,30.02,ENE,67,5.0,7.0,-999,-99.99,,,-99.99,,2013-08-23 19:02:00,
2013-08-23 15:12:00,-999.0,-99.9,30.01,ENE,70,7.0,10.0,-999,-99.99,,,-99.99,,2013-08-23 19:12:00,
2013-08-23 15:22:00,-999.0,-99.9,30.01,East,85,6.0,6.0,-999,-99.99,,,-99.99,,2013-08-23 19:22:00,
2013-08-23 15:32:00,-999.0,-99.9,29.99,ENE,73,6.0,12.0,-999,-99.99,,,-99.99,,2013-08-23 19:32:00,
2013-08-23 15:43:00,-999.0,-99.9,29.99,East,82,5.0,8.0,-999,-99.99,,,-99.99,,2013-08-23 19:43:00,
2013-08-23 16:02:00,-999.0,-99.9,29.99,ENE,67,4.0,6.0,-999,-99.99,,,-99.99,,2013-08-23 20:02:00,
2013-08-23 16:12:00,-999.0,-99.9,29.98,ENE,72,5.0,6.0,-999,-99.99,,,-99.99,,2013-08-23 20:12:00,
2013-08-23 16:22:00,-999.0,-99.9,29.99,ENE,77,6.0,7.0,-999,-99.99,,,-99.99,,2013-08-23 20:22:00,
2013-08-23 16:32:00,-999.0,-99.9,30.00,East,79,6.0,11.0,-999,-99.99,,,-99.99,,2013-08-23 20:32:00,
2013-08-23 16:42:00,-999.0,-99.9,29.99,East,80,5.0,9.0,-999,-99.99,,,-99.99,,2013-08-23 20:42:00,
2013-08-23 16:52:00,-999.0,-99.9,29.98,NE,46,5.0,9.0,-999,-99.99,,,-99.99,,2013-08-23 20:52:00,
2013-08-23 17:12:00,-999.0,-99.9,29.99,East,79,5.0,7.0,-999,-99.99,,,-99.99,,2013-08-23 21:12:00,
2013-08-23 17:34:00,-999.0,-99.9,29.99,East,86,7.0,11.0,-999,-99.99,,,-99.99,,2013-08-23 21:34:00,
2013-08-23 17:44:00,-999.0,-99.9,29.99,East,97,5.0,13.0,-999,-99.99,,,-99.99,,2013-08-23 21:44:00,
2013-08-23 17:54:00,-999.0,-99.9,29.99,East,98,9.0,13.0,-999,-99.99,,,-99.99,,2013-08-23 21:54:00,
2013-08-23 18:04:00,-999.0,-99.9,29.99,SE,130,8.0,12.0,-999,-99.99,,,-99.99,,2013-08-23 22:04:00,
2013-08-23 18:24:00,-999.0,-99.9,29.99,East,89,5.0,9.0,-999,-99.99,,,-99.99,,2013-08-23 22:24:00,
2013-08-23 18:33:00,-999.0,-99.9,30.00,East,86,5.0,7.0,-999,-99.99,,,-99.99,,2013-08-23 22:33:00,
2013-08-23 18:43:00,-999.0,-99.9,30.00,East,94,6.0,10.0,-999,-99.99,,,-99.99,,2013-08-23 22:43:00,
2013-08-23 18:54:00,-999.0,-99.9,30.00,East,88,4.0,12.0,-999,-99.99,,,-99.99,,2013-08-23 22:54:00,
2013-08-23 19:12:00,-999.0,-99.9,30.00,ENE,57,6.0,11.0,-999,-99.99,,,-99.99,,2013-08-23 23:12:00,
2013-08-23 19:33:00,-999.0,-99.9,30.00,East,79,4.0,7.0,-999,-99.99,,,-99.99,,2013-08-23 23:33:00,
2013-08-23 19:54:00,-999.0,-99.9,29.99,East,89,4.0,7.0,-999,-99.99,,,-99.99,,2013-08-23 23:54:00,
2013-08-23 20:02:00,-999.0,-99.9,29.99,East,85,3.0,5.0,-999,-99.99,,,-99.99,,2013-08-24 00:02:00,
2013-08-23 20:11:00,-999.0,-99.9,30.00,ESE,107,6.0,9.0,-999,-99.99,,,-99.99,,2013-08-24 00:11:00,
2013-08-23 20:22:00,-999.0,-99.9,30.00,ESE,119,5.0,7.0,-999,-99.99,,,-99.99,,2013-08-24 00:22:00,
2013-08-23 20:32:00,-999.0,-99.9,30.00,ESE,120,6.0,8.0,-999,-99.99,,,-99.99,,2013-08-24 00:32:00,
2013-08-23 20:43:00,-999.0,-99.9,30.00,ESE,114,5.0,8.0,-999,-99.99,,,-99.99,,2013-08-24 00:43:00,
2013-08-23 20:53:00,-999.0,-99.9,30.01,ESE,116,6.0,9.0,-999,-99.99,,,-99.99,,2013-08-24 00:53:00,
2013-08-23 21:11:00,-999.0,-99.9,30.01,East,79,4.0,7.0,-999,-99.99,,,-99.99,,2013-08-24 01:11:00,
2013-08-23 21:32:00,-999.0,-99.9,30.02,ESE,105,3.0,7.0,-999,-99.99,,,-99.99,,2013-08-24 01:32:00,
2013-08-23 21:42:00,-999.0,-99.9,30.03,ENE,59,2.0,6.0,-999,-99.99,,,-99.99,,2013-08-24 01:42:00,
2013-08-23 21:53:00,-999.0,-99.9,30.03,ENE,67,3.0,4.0,-999,-99.99,,,-99.99,,2013-08-24 01:53:00,
2013-08-23 22:03:00,-999.0,-99.9,30.03,East,81,4.0,7.0,-999,-99.99,,,-99.99,,2013-08-24 02:03:00,
2013-08-23 22:12:00,-999.0,-99.9,30.03,ESE,103,4.0,7.0,-999,-99.99,,,-99.99,,2013-08-24 02:12:00,
2013-08-23 22:32:00,-999.0,-99.9,30.03,ENE,78,3.0,5.0,-999,-99.99,,,-99.99,,2013-08-24 02:32:00,
2013-08-23 22:42:00,-999.0,-99.9,30.03,ENE,72,4.0,5.0,-999,-99.99,,,-99.99,,2013-08-24 02:42:00,
2013-08-23 22:52:00,-999.0,-99.9,30.03,ENE,73,3.0,7.0,-999,-99.99,,,-99.99,,2013-08-24 02:52:00,
2013-08-23 23:02:00,-999.0,-99.9,30.03,ENE,68,3.0,6.0,-999,-99.99,,,-99.99,,2013-08-24 03:02:00,
2013-08-23 23:12:00,-999.0,-99.9,30.03,ENE,73,4.0,7.0,-999,-99.99,,,-99.99,,2013-08-24 03:12:00,
2013-08-23 23:22:00,-999.0,-99.9,30.03,ENE,62,3.0,7.0,-999,-99.99,,,-99.99,,2013-08-24 03:22:00,
2013-08-23 23:34:00,-999.0,-99.9,-100.00,East,84,3.0,5.0,-999,-99.99,,,-99.99,,2013-08-24 03:34:00,
2013-08-23 23:44:00,-999.0,-99.9,30.03,East,83,3.0,6.0,-999,-99.99,,,-99.99,,2013-08-24 03:44:00,
2013-08-23 23:55:00,-999.0,-99.9,30.03,ENE,63,3.0,6.0,-999,-99.99,,,-99.99,,2013-08-24 03:55:00,